Location: Sears
(37.7625°N, 100.1060°W)
Time: 21:55:41
(UTC+00:00)

ERS-2 - Pass Details

Date: 29 October 2020
Orbit: 493 x 497 km, 98.6° (Epoch: 30 November)

Event Time Altitude Azimuth Distance (km) Brightness Sun altitude
Rises 12:02:44 0° 195° (SSW) 2,564 5.7 -12.5°
Reaches altitude 10° 12:05:10 10° 212° (SSW) 1,686 4.6 -12.0°
Maximum altitude 12:07:59 21° 263° (W) 1,143 3.4 -11.5°
Enters shadow 12:10:15 13° 308° (NW) 1,517 4.0 -11.0°
